Home > Weather > Pond Inlet > Past weeks

Flag for Canada Past Weather in Pond Inlet, Nunavut, Canada — Yesterday and Last 2 Weeks

Now
48 °F

Overcast.


Feels Like: 45 °F
Forecast: 37 / 44 °F
Wind: 7 mph from West

Location: Pond Inlet

Current Time: Jul 26, 2016 at 12:42:29 AM

Latest Report: Jul 26, 2016 at 12:00 AM


Visibility: 9 mi

Pressure: 29.95 "Hg

Humidity: 76%

Dew Point: 41 °F

Location of Pond InletLocation

Past Weather in Pond Inlet — Graph

°F

Pond Inlet Temperature Yesterday

Maximum temperature yesterday: 57 °F (at 11:00 AM)
Minimum temperature yesterday: 46 °F (at 12:00 AM)
Average temperature yesterday: 52 °F

High & Low Weather Summary for the Past Weeks

 TemperatureHumidityPressure
High61 °F (Jul 14, 5:00 PM)100% (Jul 13, 5:58 AM)30.13 "Hg (Jul 13, 5:58 AM)
Low32 °F (Jul 13, 5:58 AM)34% (Jul 17, 1:00 PM)29.15 "Hg (Jul 19, 8:00 AM)
Average46 °F74%29.74 "Hg
* Reported Jul 10 11:00 PM — Jul 25 11:00 PM, Pond Inlet, Weather by CustomWeather, © 2016

Note: Actual official high and low records may vary slightly from our data, if they occured in-between our weather recording intervals... More about our weather records

Advertising

Pond Inlet Weather History for the Previous 24 Hours

Scroll right to see more
 ConditionsComfort  
Time TempWeatherWind HumidityBarometerVisibility
11:00 PM
Mon, Jul 25
50 °FMore clouds than sun.5 mph71%29.94 "Hg9 mi
10:00 PM52 °FMostly cloudy.14 mph72%29.93 "Hg9 mi
9:00 PM52 °FMostly cloudy.8 mph77%29.91 "Hg9 mi
8:53 PM50 °FCloudy.3 mph82%29.91 "Hg9 mi
8:00 PM54 °FOvercast.21 mph63%29.91 "Hg9 mi
7:00 PM55 °FMostly cloudy.23 mph55%29.88 "Hg9 mi
6:00 PM55 °FOvercast.23 mph59%29.88 "Hg9 mi
5:00 PM55 °FBroken clouds.18 mph59%29.88 "Hg30 mi
4:00 PM55 °FPartly sunny.20 mph59%29.87 "Hg30 mi
3:00 PM54 °FBroken clouds.16 mph63%29.87 "Hg30 mi
2:00 PM54 °FPartly sunny.12 mph67%29.87 "Hg30 mi
1:51 PM52 °FPartly sunny.12 mph77%29.87 "Hg30 mi
1:00 PM55 °FMostly cloudy.15 mph59%29.86 "Hg25 mi
12:00 PM54 °FCloudy.20 mph67%29.87 "Hg20 mi
11:50 AM54 °FCloudy.15 mph67%29.87 "Hg20 mi
11:00 AM57 °FPartly sunny.17 mph59%29.86 "Hg30 mi
10:00 AM54 °FMostly cloudy.18 mph67%29.85 "Hg9 mi
9:00 AM55 °FOvercast.9 mph59%29.86 "Hg9 mi
8:00 AM52 °FOvercast.5 mph72%29.86 "Hg9 mi
7:00 AM50 °FOvercast.7 mph76%29.86 "Hg9 mi
6:00 AM48 °FOvercast.5 mph82%29.85 "Hg9 mi
5:00 AM54 °FPartly sunny.7 mph72%29.84 "Hg9 mi
4:00 AM52 °FPartly sunny.13 mph77%29.83 "Hg9 mi
3:00 AM48 °FOvercast.3 mph82%29.83 "Hg9 mi
2:00 AM50 °FOvercast.3 mph82%29.83 "Hg9 mi
1:48 AM50 °FOvercast.3 mph82%29.83 "Hg9 mi
1:04 AM48 °FLight rain. Mostly cloudy.No wind82%29.83 "Hg9 mi
12:00 AM46 °FCloudy.No wind82%29.82 "Hg9 mi
Weather by CustomWeather, © 2016

See weather overviewHow to use our weather pages